, CO

(GMT )
Cottonwood Pass

Weather History for K7BM - August, 2013

Change the Weather History Date:

Saturday, August 17, 2013

  Actual Average Record
Temperature  
Mean Temperature 68 °F -  
Max Temperature 77 °F - - ()
Min Temperature 60 °F - - ()
Cooling Degree Days 4    
Growing Degree Days 18 (Base 50)    
Moisture  
Dew Point 22 °F    
Average Humidity 19    
Maximum Humidity 30    
Minimum Humidity 9    
Precipitation  
Precipitation 0.00 in - - ()
Sea Level Pressure  
Sea Level Pressure 30.55 in    
Wind  
Wind Speed 4 mph (WSW)    
Max Wind Speed 10 mph    
Max Gust Speed -    
Visibility 10 miles    
Events      
Averages and records for this station are not official NWS values.
T = Trace of Precipitation, MM = Missing Value Source: NWS Daily Summary

Daily Weather History Graph

Daily Weather History Graph

Search for Another Location

Airport or City:

Trip Planner

Search our weather history database for the weather conditions in past years. The results will help you decide how hot, cold, wet, or windy it might be!

Date:

Astronomy

Aug. 17, 2013 Rise Set
Actual Time 6:20 AM MDT 7:56 PM MDT
Civil Twilight 5:52 AM MDT 8:24 PM MDT
Nautical Twilight 5:18 AM MDT 8:58 PM MDT
Astronomical Twilight 4:42 AM MDT 9:34 PM MDT
Moon 5:13 PM MDT (8/17) 2:27 AM MDT (8/17)
Length of Visible Light 14h 32m
Length of Day
13h 35m
Waxing Gibbous, 85% of the Moon is Illuminated
Aug 17
Waxing Gibbous
Aug 20
Full
Aug 28
Last Quarter
Sep 5
New
Sep 12
First Quarter

Hourly Weather History & Observations

Time (MDT) Temp. Dew Point Humidity Pressure Visibility Wind Dir Wind Speed Gust Speed Precip Events Conditions
12:14 AM 60.8 °F 24.8 °F 25% 30.59 in 10.0 mi West 6.9 mph - N/A   Scattered Clouds
12:34 AM 62.6 °F 24.8 °F 24% 30.59 in 10.0 mi West 4.6 mph - N/A   Scattered Clouds
12:54 AM 62.6 °F 24.8 °F 24% 30.59 in 10.0 mi West 5.8 mph - N/A   Mostly Cloudy
1:14 AM 60.8 °F 24.8 °F 25% 30.59 in 10.0 mi West 9.2 mph - N/A   Scattered Clouds
1:34 AM 60.8 °F 24.8 °F 25% 30.58 in 10.0 mi West 6.9 mph - N/A   Scattered Clouds
1:54 AM 60.8 °F 24.8 °F 25% 30.58 in 10.0 mi West 4.6 mph - N/A   Scattered Clouds
2:14 AM 60.8 °F 24.8 °F 25% 30.58 in 10.0 mi WNW 4.6 mph - N/A   Clear
2:34 AM 60.8 °F 24.8 °F 25% 30.58 in 10.0 mi West 6.9 mph - N/A   Clear
2:54 AM 60.8 °F 24.8 °F 25% 30.57 in 10.0 mi West 6.9 mph - N/A   Clear
3:14 AM 60.8 °F 24.8 °F 25% 30.57 in 10.0 mi West 6.9 mph - N/A   Clear
3:34 AM 60.8 °F 24.8 °F 25% 30.57 in 10.0 mi West 8.1 mph - N/A   Clear
3:54 AM 60.8 °F 24.8 °F 25% 30.56 in 10.0 mi Calm Calm - N/A   Scattered Clouds
4:14 AM 60.8 °F 26.6 °F 27% 30.56 in 10.0 mi WSW 3.5 mph - N/A   Scattered Clouds
4:34 AM 60.8 °F 23.0 °F 23% 30.56 in 10.0 mi WSW 5.8 mph - N/A   Clear
4:54 AM 60.8 °F 23.0 °F 23% 30.56 in 10.0 mi Calm Calm - N/A   Scattered Clouds
5:14 AM 60.8 °F 26.6 °F 27% 30.56 in 10.0 mi Calm Calm - N/A   Scattered Clouds
5:34 AM 60.8 °F 26.6 °F 27% 30.57 in 10.0 mi Calm Calm - N/A   Clear
5:54 AM 60.8 °F 26.6 °F 27% 30.57 in 10.0 mi Calm Calm - N/A   Clear
6:14 AM 60.8 °F 21.2 °F 22% 30.57 in 10.0 mi West 4.6 mph - N/A   Scattered Clouds
6:34 AM 60.8 °F 21.2 °F 22% 30.57 in 10.0 mi West 3.5 mph - N/A   Scattered Clouds
6:54 AM 60.8 °F 19.4 °F 20% 30.58 in 10.0 mi West 5.8 mph - N/A   Scattered Clouds
7:14 AM 60.8 °F 19.4 °F 20% 30.58 in 10.0 mi WSW 6.9 mph - N/A   Clear
7:34 AM 62.6 °F 19.4 °F 19% 30.58 in 10.0 mi WSW 8.1 mph - N/A   Clear
7:54 AM 62.6 °F 21.2 °F 20% 30.58 in 10.0 mi WSW 3.5 mph - N/A   Scattered Clouds
8:14 AM 62.6 °F 21.2 °F 20% 30.58 in 10.0 mi West 3.5 mph - N/A   Scattered Clouds
8:34 AM 62.6 °F 30.2 °F 30% 30.59 in 10.0 mi Calm Calm - N/A   Scattered Clouds
8:53 AM 64.4 °F 26.6 °F 24% 30.59 in 10.0 mi Calm Calm - N/A   Scattered Clouds
9:14 AM 66.2 °F 28.4 °F 24% 30.59 in 10.0 mi Calm Calm - N/A   Scattered Clouds
9:34 AM 64.4 °F 32.0 °F 30% 30.59 in 10.0 mi Calm Calm - N/A   Scattered Clouds
9:54 AM 64.4 °F 30.2 °F 28% 30.59 in 10.0 mi Calm Calm - N/A   Scattered Clouds
10:13 AM 66.2 °F 33.8 °F 30% 30.59 in 10.0 mi Calm Calm - N/A   Clear
10:34 AM 71.6 °F 28.4 °F 20% 30.59 in 10.0 mi Calm Calm - N/A   Scattered Clouds
10:54 AM 69.8 °F 24.8 °F 18% 30.59 in 10.0 mi Calm Calm - N/A   Overcast
11:14 AM 68.0 °F 26.6 °F 21% 30.59 in 10.0 mi Calm Calm - N/A   Overcast
11:34 AM 69.8 °F 28.4 °F 21% 30.58 in 10.0 mi Calm Calm - N/A   Mostly Cloudy
11:54 AM 73.4 °F 10.4 °F 9% 30.58 in 10.0 mi WNW 3.5 mph - N/A   Mostly Cloudy
12:14 PM 71.6 °F 17.6 °F 13% 30.57 in 10.0 mi Calm Calm - N/A   Overcast
12:34 PM 71.6 °F 19.4 °F 14% 30.57 in 10.0 mi Calm Calm - N/A   Scattered Clouds
12:54 PM 71.6 °F 12.2 °F 10% 30.56 in 10.0 mi East 3.5 mph - N/A   Scattered Clouds
1:14 PM 73.4 °F 17.6 °F 12% 30.56 in 10.0 mi Calm Calm - N/A   Mostly Cloudy
1:34 PM 75.2 °F 15.8 °F 11% 30.55 in 10.0 mi NNE 3.5 mph - N/A   Mostly Cloudy
1:53 PM 77.0 °F 15.8 °F 10% 30.54 in 10.0 mi Calm Calm - N/A   Scattered Clouds
2:14 PM 73.4 °F 17.6 °F 12% 30.54 in 10.0 mi Calm Calm - N/A   Scattered Clouds
2:34 PM 71.6 °F 17.6 °F 13% 30.53 in 10.0 mi Calm Calm - N/A   Mostly Cloudy
2:54 PM 73.4 °F 17.6 °F 12% 30.52 in 10.0 mi Calm Calm - N/A   Scattered Clouds
3:14 PM 73.4 °F 17.6 °F 12% 30.51 in 10.0 mi Calm Calm - N/A   Scattered Clouds
3:34 PM 73.4 °F 17.6 °F 12% 30.51 in 10.0 mi Calm Calm - N/A   Clear
3:54 PM 73.4 °F 19.4 °F 13% 30.51 in 10.0 mi Calm Calm - N/A   Scattered Clouds
4:14 PM 73.4 °F 21.2 °F 14% 30.50 in 10.0 mi Calm Calm - N/A   Mostly Cloudy
4:34 PM 73.4 °F 17.6 °F 12% 30.49 in 10.0 mi SE 4.6 mph - N/A   Mostly Cloudy
4:54 PM 71.6 °F 17.6 °F 13% 30.49 in 10.0 mi Calm Calm - N/A   Scattered Clouds
5:14 PM 71.6 °F 23.0 °F 16% 30.49 in 10.0 mi Calm Calm - N/A   Clear
5:33 PM 73.4 °F 19.4 °F 13% 30.49 in 10.0 mi South 4.6 mph - N/A   Clear
5:54 PM 73.4 °F 17.6 °F 12% 30.49 in 10.0 mi Calm Calm - N/A   Clear
6:14 PM 71.6 °F 21.2 °F 15% 30.49 in 10.0 mi SSE 3.5 mph - N/A   Clear
6:34 PM 71.6 °F 19.4 °F 14% 30.49 in 10.0 mi Calm Calm - N/A   Clear
6:54 PM 71.6 °F 19.4 °F 14% 30.48 in 10.0 mi Calm Calm - N/A   Clear
7:14 PM 71.6 °F 15.8 °F 12% 30.48 in 10.0 mi Calm Calm - N/A   Clear
7:34 PM 71.6 °F 14.0 °F 11% 30.49 in 10.0 mi Calm Calm - N/A   Clear
7:53 PM 71.6 °F 14.0 °F 11% 30.49 in 10.0 mi Calm Calm - N/A   Clear
8:14 PM 69.8 °F 17.6 °F 14% 30.49 in 10.0 mi West 4.6 mph - N/A   Clear
8:34 PM 69.8 °F 17.6 °F 14% 30.49 in 10.0 mi West 3.5 mph - N/A   Scattered Clouds
8:54 PM 69.8 °F 15.8 °F 13% 30.50 in 10.0 mi West 5.8 mph - N/A   Overcast
9:14 PM 64.4 °F 26.6 °F 24% 30.52 in 10.0 mi SSE 6.9 mph - N/A   Overcast
9:33 PM 66.2 °F 21.2 °F 18% 30.52 in 10.0 mi SE 6.9 mph - N/A   Overcast
9:54 PM 68.0 °F 23.0 °F 18% 30.52 in 10.0 mi SSE 10.4 mph - N/A   Overcast
10:14 PM 68.0 °F 23.0 °F 18% 30.52 in 10.0 mi SSE 10.4 mph - N/A   Overcast
10:34 PM 68.0 °F 23.0 °F 18% 30.53 in 10.0 mi Calm Calm - N/A   Scattered Clouds
10:53 PM 64.4 °F 23.0 °F 21% 30.53 in 10.0 mi Calm Calm - N/A   Scattered Clouds
11:14 PM 64.4 °F 26.6 °F 24% 30.52 in 10.0 mi Calm Calm - N/A   Clear
11:34 PM 64.4 °F 24.8 °F 22% 30.53 in 10.0 mi Calm Calm - N/A   Clear
11:54 PM 64.4 °F 24.8 °F 22% 30.53 in 10.0 mi Calm Calm - N/A   Clear